Flag for Germany Weather past 2 weeks in Neunkirchen (Saar), Saarland, Germany

Now
63 °F

Clear.


Feels Like: 63 °F
Forecast: 58 / 72 °F
Wind: 8 mph from East

Location: Saarbruecken / Ensheim

Current Time: Aug 3, 2015 at 3:14:44 AM

Latest Report: Aug 3, 2015 at 2:20 AM


Visibility: 10 mi

Pressure: 30.04 "Hg

Humidity: 59%

Dew point: 48 °F

Location of Neunkirchen (Saar)Location

Historic Weather in Neunkirchen (Saar) — Graph

°F

Neunkirchen (Saar) temperature yesterday

Maximum temperature yesterday: 82 °F (at 3:20 PM)
Minimum temperature yesterday: 52 °F (at 5:50 AM)
Average temperature yesterday: 69 °F

Past Weeks' High & Low Weather Summary

 TemperatureHumidityPressure
High88 °F (Jul 21, 5:20 PM)94% (Jul 25, 3:50 AM)30.12 "Hg (Jul 25, 3:50 AM)
Low45 °F (Jul 26, 5:20 AM)23% (Aug 2, 3:50 PM)29.68 "Hg (Jul 24, 8:50 PM)
Average66 °F60%29.94 "Hg
* Reported Jul 19 2:20 AM — Aug 3 2:20 AM, Neunkirchen (Saar), Weather by CustomWeather, © 2015

Note: Actual official high and low records may vary slightly from our data, if they occured in-between our weather recording intervals... More about our weather records

Advertising

Neunkirchen (Saar) weather history for previous 24 hours

 ConditionsComfort  
Time TempWeatherWind HumidityBarometerVisibility
2:20 AM
Mon, Aug 3
63 °FClear.8 mph59%30.04 "Hg10 mi
1:50 AM64 °FClear.6 mph56%30.04 "Hg10 mi
1:20 AM64 °FClear.6 mph56%30.04 "Hg10 mi
12:50 AM64 °FPassing clouds.3 mph56%30.04 "HgN/A
12:20 AM68 °FClear.5 mph46%30.04 "Hg10 mi
11:50 PM
Sun, Aug 2
66 °FClear.5 mph49%30.04 "Hg10 mi
11:20 PM66 °FClear.5 mph49%30.04 "Hg10 mi
10:50 PM68 °FClear.5 mph49%30.04 "Hg10 mi
10:20 PM68 °FClear.5 mph46%30.04 "Hg10 mi
9:50 PM70 °FSunny.6 mph43%30.04 "Hg10 mi
9:20 PM72 °FSunny.6 mph38%30.04 "Hg10 mi
8:50 PM77 °FSunny.5 mph32%30.04 "Hg10 mi
8:20 PM79 °FSunny.6 mph30%30.04 "Hg10 mi
7:50 PM81 °FSunny.6 mph26%30.04 "Hg10 mi
7:20 PM81 °FPassing clouds.6 mph26%30.04 "HgN/A
6:50 PM82 °FPassing clouds.8 mph25%30.04 "HgN/A
6:20 PM82 °FPassing clouds.6 mph26%30.04 "HgN/A
5:50 PM82 °FPassing clouds.6 mph26%30.07 "HgN/A
5:20 PM82 °FSunny.8 mph26%30.07 "Hg10 mi
4:50 PM82 °FPassing clouds.6 mph25%30.07 "HgN/A
4:20 PM82 °FSunny.7 mph26%30.07 "Hg10 mi
3:50 PM82 °FPassing clouds.8 mph23%30.07 "HgN/A
3:20 PM82 °FSunny.7 mph26%30.07 "Hg10 mi
2:50 PM81 °FSunny.6 mph26%30.09 "Hg10 mi
2:20 PM81 °FSunny.5 mph28%30.09 "Hg10 mi
1:50 PM81 °FSunny.6 mph26%30.09 "Hg10 mi
1:20 PM79 °FPassing clouds.7 mph30%30.09 "HgN/A
12:50 PM77 °FPassing clouds.6 mph32%30.12 "HgN/A
12:20 PM75 °FPassing clouds.7 mph39%30.12 "HgN/A
11:50 AM75 °FSunny.5 mph41%30.12 "Hg10 mi
11:20 AM73 °FPassing clouds.6 mph44%30.12 "HgN/A
10:50 AM72 °FPassing clouds.7 mph44%30.12 "HgN/A
10:20 AM72 °FPassing clouds.8 mph47%30.12 "HgN/A
9:50 AM70 °FSunny.8 mph46%30.12 "Hg10 mi
9:20 AM66 °FPassing clouds.5 mph56%30.12 "HgN/A
8:50 AM64 °FSunny.2 mph64%30.12 "Hg10 mi
8:20 AM61 °FSunny.1 mph72%30.12 "Hg10 mi
7:50 AM57 °FFog.2 mph82%30.12 "HgN/A
7:20 AM55 °FFog.No wind82%30.12 "HgN/A
6:50 AM52 °FFog.3 mph88%30.09 "HgN/A
6:20 AM52 °FFog.1 mph88%30.09 "HgN/A
5:50 AM52 °FFog.1 mph88%30.09 "HgN/A
5:20 AM54 °FClear.1 mph82%30.09 "Hg10 mi
4:50 AM54 °FClear.1 mph88%30.07 "Hg10 mi
4:20 AM54 °FClear.1 mph82%30.07 "Hg10 mi
3:50 AM55 °FClear.1 mph82%30.07 "Hg10 mi
3:20 AM55 °FClear.1 mph82%30.07 "Hg10 mi
Weather by CustomWeather, © 2015

See weather overviewHow to use our weather pages